Find FLTSATCOM F1

NORAD ID: 10669 Int'l Des: 1978-016 Owner: USNESC/SAMSO Country: US operational
HEOCIRCULAR

实时位置

正在加载3D地球...

关于 FLTSATCOM F1

正在加载描述...

即将过境

Passes for default location (London). Set your location on the main map for personalized predictions.

高度历史

Loading altitude history...

两行轨道根数

1 10669U 78016A 26131.80819045 -.00000087 00000-0 00000+0 0 9997
2 10669 7.1995 291.7979 0006154 265.9459 245.5130 0.99002599754217
Epoch: May 11, 2026 • Age: 8 hours

当前状态

高度 36120.8 km
速度 3.06 km/s
星下点 -7.21°S, 78.8°W
发射日期 Feb 9, 1978
运行时间 48.2 years
类型 other

技术详情

分类 Payload
质量 942.00 kg
干质量 822.00 kg
总质量 1876.00 kg
长度 1.30 m
直径 2.40 m
跨度 13.20 m
形状 Hex Cyl + Dish + 2 Pan
制造商 TRW
平台类型 FLTSATCOM
阶段状态 In Orbit
所有者/国家 USNESC/SAMSO/US

Most Searched